Weather History for Whiteman AFB, MO

Change the Weather History Date:

Friday, October 7, 2011

  Actual Average Record
Temperature  
Mean Temperature 73 °F -  
Max Temperature 84 °F 69 °F 88 °F (2007)
Min Temperature 63 °F 48 °F 28 °F (2000)
Cooling Degree Days 8    
Growing Degree Days 23 (Base 50)    
Moisture  
Dew Point 53 °F    
Average Humidity 51    
Maximum Humidity 64    
Minimum Humidity 36    
Precipitation  
Precipitation 0.00 in - - ()
Sea Level Pressure  
Sea Level Pressure 30.09 in    
Wind  
Wind Speed 13 mph (SSE)    
Max Wind Speed 23 mph    
Max Gust Speed 32 mph    
Visibility 10 miles    
Events      
Averages and records for this station are not official NWS values.
T = Trace of Precipitation, MM = Missing Value Source: NWS Daily Summary

Daily Weather History Graph

Daily Weather History Graph

Search for Another Location

Airport:

Trip Planner

Search our weather history database for the weather conditions in past years. The results will help you decide how hot, cold, wet, or windy it might be!

Date:

Astronomy

Oct. 07, 2011 Rise Set
Actual Time 7:15 AM CDT 6:48 PM CDT
Civil Twilight 6:48 AM CDT 7:14 PM CDT
Nautical Twilight 6:18 AM CDT 7:45 PM CDT
Astronomical Twilight 5:47 AM CDT 8:16 PM CDT
Moon 4:29 PM CDT (10/7) 3:07 AM CDT (10/7)
Length of Visible Light 12h 25m
Length of Day
11h 32m
Waxing Gibbous, 83% of the Moon is Illuminated
Oct 7
Waxing Gibbous
Oct 11
Full
Oct 19
Last Quarter
Oct 26
New
Nov 2
First Quarter

Hourly Weather History & Observations

Time (CDT) Temp. Heat Index Dew Point Humidity Pressure Visibility Wind Dir Wind Speed Gust Speed Precip Events Conditions
12:55 AM 67.5 °F - 52.0 °F 58% 30.04 in 10.0 mi SSE 11.5 mph - N/A   Clear
1:55 AM 65.7 °F - 51.8 °F 61% 30.05 in 10.0 mi SSE 10.4 mph - N/A   Clear
2:55 AM 65.3 °F - 51.8 °F 62% 30.05 in 10.0 mi SSE 10.4 mph - N/A   Clear
3:55 AM 64.2 °F - 51.6 °F 64% 30.06 in 10.0 mi SSE 10.4 mph - N/A   Clear
4:55 AM 64.0 °F - 51.3 °F 63% 30.08 in 10.0 mi SSE 10.4 mph - N/A   Clear
5:55 AM 63.9 °F - 50.9 °F 63% 30.10 in 10.0 mi SSE 10.4 mph - N/A   Clear
6:55 AM 64.2 °F - 51.3 °F 63% 30.11 in 10.0 mi SSE 12.7 mph - N/A   Scattered Clouds
7:55 AM 64.9 °F - 52.0 °F 63% 30.13 in 10.0 mi SSE 11.5 mph - N/A   Mostly Cloudy
8:55 AM 68.0 °F - 52.9 °F 58% 30.13 in 10.0 mi SSE 17.3 mph 23.0 mph N/A   Clear
9:55 AM 73.6 °F - 54.7 °F 51% 30.14 in 10.0 mi South 19.6 mph 24.2 mph N/A   Partly Cloudy
10:55 AM 79.5 °F - 56.1 °F 44% 30.14 in 10.0 mi South 23.0 mph 32.2 mph N/A   Partly Cloudy
11:55 AM 80.6 °F 80.6 °F 55.9 °F 43% 30.13 in 10.0 mi South 18.4 mph 25.3 mph N/A   Clear
12:55 PM 81.7 °F 81.2 °F 54.9 °F 40% 30.12 in 10.0 mi South 18.4 mph 26.5 mph N/A   Partly Cloudy
1:55 PM 83.5 °F 82.4 °F 54.3 °F 37% 30.09 in 10.0 mi SSE 19.6 mph 27.6 mph N/A   Clear
2:55 PM 83.7 °F 82.5 °F 54.5 °F 37% 30.08 in 10.0 mi SSE 15.0 mph 25.3 mph N/A   Clear
3:55 PM 83.5 °F 82.2 °F 53.6 °F 36% 30.08 in 10.0 mi South 18.4 mph 25.3 mph N/A   Clear
4:55 PM 82.6 °F - 52.9 °F 36% 30.07 in 10.0 mi South 19.6 mph 25.3 mph N/A   Clear
5:55 PM 80.4 °F 80.1 °F 53.1 °F 39% 30.07 in 10.0 mi South 16.1 mph 20.7 mph N/A   Clear
6:55 PM 76.8 °F - 53.1 °F 44% 30.08 in 10.0 mi SSE 9.2 mph - N/A   Clear
7:55 PM 73.4 °F - 51.4 °F 46% 30.09 in 10.0 mi SSE 9.2 mph - N/A   Clear
8:55 PM 71.2 °F - 52.3 °F 51% 30.10 in 10.0 mi SSE 9.2 mph - N/A   Clear
9:55 PM 70.0 °F - 52.0 °F 53% 30.10 in 10.0 mi SSE 10.4 mph - N/A   Clear
10:55 PM 69.1 °F - 52.0 °F 54% 30.10 in 10.0 mi SSE 10.4 mph - N/A   Clear
11:55 PM 68.7 °F - 51.4 °F 54% 30.10 in 10.0 mi SSE 12.7 mph - N/A   Clear